DW2144 Weather Reports


Display with metric or nautical units.
time (UTC)temp
F
wind
direction
speed
MPH
gust
MPH
rain 1hr
in
rain 24hr
in
rain mn
in
humidity
%
barometer
mb
20260904110033 51 46 0.0 0.0 0.00 0.12 0.00 86 1011.1
20260904104532 52 46 0.0 0.0 0.00 0.12 0.00 86 1011.1
20260904103031 52 46 0.0 0.0 0.00 0.12 0.00 86 1011.0
20260904101532 52 46 0.0 0.0 0.00 0.12 0.00 85 1010.9
20260904100028 52 46 0.0 0.0 0.00 0.12 0.00 86 1010.9
20260904094535 53 46 0.0 0.0 0.00 0.12 0.00 86 1010.7
20260904093025 53 46 0.0 0.0 0.00 0.12 0.00 86 1010.7
20260904091524 53 46 0.0 0.0 0.00 0.12 0.00 86 1010.7
20260904090022 54 46 0.0 0.0 0.00 0.12 0.00 86 1010.6
20260904084521 54 46 0.0 0.0 0.00 0.12 0.00 86 1010.7
20260904083032 55 46 0.0 0.0 0.00 0.12 0.00 86 1010.7
20260904081517 55 46 0.0 0.0 0.00 0.12 0.00 86 1010.7
20260904080014 56 46 0.0 0.0 0.00 0.12 0.00 86 1010.6
20260904074513 56 46 0.0 0.0 0.00 0.12 0.00 86 1010.7
20260904073015 56 46 0.0 0.0 0.00 0.12 0.00 85 1010.6
20260904071510 56 45 0.0 0.0 0.00 0.12 0.00 86 1010.6
20260904070007 57 45 0.0 0.0 0.00 0.12 0.00 86 1010.7
20260904064507 57 44 0.0 0.0 0.00 0.12 0.12 86 1010.6
20260904063007 57 44 0.0 0.0 0.00 0.12 0.12 86 1010.5
20260904061506 58 44 0.0 0.0 0.00 0.12 0.12 86 1010.4
20260904060005 58 44 0.0 0.0 0.00 0.12 0.12 86 1010.4
20260904054505 59 44 0.0 0.0 0.00 0.12 0.12 86 1010.4
20260904053008 60 44 0.0 0.0 0.00 0.12 0.12 86 1010.6
20260904051504 60 44 0.0 0.0 0.00 0.12 0.12 86 1010.7
20260904050003 61 44 0.0 0.0 0.00 0.12 0.12 86 1010.7
20260904044504 61 44 0.0 0.0 0.00 0.12 0.12 86 1010.6
20260904043004 61 44 0.0 0.0 0.00 0.12 0.12 86 1010.5
20260904041503 62 44 0.0 0.0 0.00 0.12 0.12 86 1010.7
20260904040001 62 44 0.0 0.0 0.00 0.12 0.12 86 1010.7
20260904034500 62 44 0.0 0.0 0.00 0.12 0.12 85 1010.5
20260904033100 62 44 0.0 0.0 0.00 0.12 0.12 85 1010.4
20260904031603 62 44 0.0 0.0 0.00 0.12 0.12 85 1010.1
20260904024559 62 44 0.0 0.0 0.00 0.12 0.12 85 1010.2
20260904023102 62 44 0.0 0.0 0.00 0.12 0.12 85 1010.2
20260904021604 62 44 0.0 1.0 0.00 0.12 0.12 85 1010.4
20260904020100 62 44 0.0 1.0 0.00 0.12 0.12 85 1010.4
20260904014601 63 46 0.0 0.0 0.00 0.12 0.12 84 1010.4
20260904013054 63 46 0.0 0.0 0.00 0.12 0.12 84 1010.5
20260904011555 63 46 0.0 0.0 0.00 0.12 0.12 84 1010.5
20260904010054 63 46 0.0 3.0 0.00 0.12 0.12 84 1010.6
20260904004552 63 46 0.0 2.0 0.00 0.12 0.12 83 1010.5
20260904003051 64 340 0.0 2.0 0.00 0.12 0.12 82 1010.4
20260904001549 64 328 0.0 4.0 0.00 0.12 0.12 80 1010.6
20260904000055 64 15 0.0 4.0 0.00 0.12 0.12 78 1010.6
20260903234547 65 329 0.0 3.0 0.00 0.12 0.12 78 1010.8
20260903233052 66 330 0.0 4.0 0.00 0.12 0.12 75 1011.0
20260903231549 66 38 0.0 4.0 0.00 0.12 0.12 75 1010.9
20260903230050 67 74 0.0 3.0 0.00 0.12 0.12 76 1011.1
20260903224602 67 55 0.0 3.0 0.00 0.12 0.12 76 1011.1
20260903223042 68 339 0.0 3.0 0.00 0.12 0.12 75 1011.2
20260903221541 68 317 0.0 5.0 0.00 0.12 0.12 76 1011.3
20260903220045 68 344 0.0 1.0 0.00 0.12 0.12 77 1011.2
20260903214550 68 344 0.0 1.0 0.00 0.12 0.12 76 1011.3
20260903213041 68 339 0.0 1.0 0.00 0.12 0.12 78 1011.3
20260903211540 68 339 0.0 1.0 0.00 0.12 0.12 79 1011.2
20260903210043 68 18 0.0 1.0 0.00 0.12 0.12 81 1011.2
20260903204537 67 350 0.0 3.0 0.00 0.12 0.12 83 1011.6
20260903203031 67 360 0.0 1.0 0.00 0.12 0.12 85 1011.5
20260903201529 67 360 0.0 0.0 0.00 0.12 0.12 85 1011.6
20260903200026 66 355 0.0 3.0 0.00 0.12 0.12 85 1011.7
20260903194525 66 355 0.0 1.0 0.00 0.12 0.12 85 1011.8
20260903193022 66 355 0.0 1.0 0.00 0.12 0.12 84 1012.1
20260903191521 66 355 0.0 4.0 0.00 0.12 0.12 83 1012.2
20260903190019 65 355 0.0 3.0 0.00 0.12 0.12 80 1012.3
20260903184517 65 355 0.0 0.0 0.00 0.12 0.12 79 1012.5
20260903183015 64 355 0.0 2.0 0.00 0.12 0.12 79 1012.6
20260903181513 64 355 0.0 1.0 0.00 0.12 0.12 79 1012.6
20260903180013 64 355 0.0 1.0 0.01 0.12 0.12 79 1012.5
20260903174511 64 355 0.0 1.0 0.02 0.12 0.12 79 1012.4
20260903173008 63 355 0.0 1.0 0.03 0.12 0.12 80 1012.4
20260903171507 63 355 0.0 3.0 0.04 0.12 0.12 81 1012.5
20260903170007 63 355 0.0 1.0 0.04 0.11 0.11 80 1012.5
20260903164505 62 355 0.0 1.0 0.03 0.10 0.10 81 1012.3
20260903163003 62 355 0.0 1.0 0.03 0.09 0.09 81 1012.3
20260903161502 62 355 0.0 1.0 0.04 0.08 0.08 82 1012.5
20260903160002 62 355 0.0 1.0 0.04 0.07 0.07 82 1012.6
20260903154610 62 355 0.0 1.0 0.04 0.08 0.07 82 1012.7
20260903153100 62 355 0.0 0.0 0.04 0.07 0.06 82 1012.8
20260903151557 62 355 0.0 1.0 0.02 0.05 0.04 82 1012.8
20260903150057 62 355 0.0 0.0 0.01 0.04 0.03 83 1012.7
20260903144604 61 355 0.0 2.0 0.01 0.08 0.03 83 1012.7
20260903143106 61 355 0.0 2.0 0.01 0.07 0.02 83 1012.5
20260903141602 61 348 0.0 0.0 0.01 0.07 0.02 83 1012.5
20260903140051 60 348 0.0 0.0 0.01 0.07 0.02 84 1012.4
20260903134557 60 348 0.0 0.0 0.01 0.12 0.02 84 1012.4
20260903133049 60 348 0.0 0.0 0.00 0.11 0.01 84 1012.5
20260903131548 60 348 0.0 0.0 0.00 0.11 0.01 84 1012.6
20260903130046 60 348 0.0 0.0 0.01 0.11 0.01 85 1012.6
20260903124546 60 348 0.0 0.0 0.01 0.19 0.01 85 1012.8
20260903123043 60 348 0.0 0.0 0.01 0.19 0.01 85 1012.9
20260903121541 60 348 0.0 0.0 0.01 0.19 0.01 85 1013.1
20260903120041 60 348 0.0 0.0 0.00 0.18 0.00 85 1013.1
20260903114544 60 348 0.0 0.0 0.00 0.20 0.00 85 1013.2
20260903113036 60 348 0.0 0.0 0.00 0.20 0.00 85 1013.2
20260903111540 60 348 0.0 0.0 0.00 0.20 0.00 85 1013.4